User: anonymous   Login
Location: Caltech
(34.1382°N, 118.1253°W)
Time: 01:39:37
(UTC-07:00)
Language:

RESURS DK-1 - Orbit

View from above orbital plane
View from above orbital plane
View from above satellite
View from above satellite

Ground track
Ground track

The orbit data is extracted from the following two-line orbital elements,

1 29228U 06021A   15209.07989684  .00000130  00000-0  17477-4 0  9994
2 29228 069.9378 053.1470 0006777 295.1890 210.4348 15.01551062504487
Epoch (UTC): 28 July 2015 01:55:03
Eccentricity: 0.0006777
inclination: 69.9378°
perigee height: 557 km
apogee height: 567 km
right ascension of ascending node: 53.1470°
argument of perigee: 295.1890°
revolutions per day: 15.01551062
mean anomaly at epoch: 210.4348°
orbit number at epoch: 50448

The dashed part of the orbit path shows where the satellite is in the earth's shadow,  

DLR